User: anonymous   Login
Location: Chiroubles
(46.1812°N, 4.6660°E)
Time: 18:40:57
(UTC+00:00)
Language:

Thor Agena Rocket - Orbit

View from above orbital plane
View from above orbital plane
View from above satellite
View from above satellite

Ground track
Ground track

The orbit data is extracted from the following two-line orbital elements,

1   733U 64002A   20303.72733597 +.00000027 +00000-0 +27569-4 0  9998
2   733 098.9942 200.3726 0033345 199.0435 160.9503 14.32409773958045
Epoch (UTC): 29 October 2020 17:27:21
Eccentricity: 0.0033345
inclination: 98.9942°
perigee height: 760 km
apogee height: 807 km
right ascension of ascending node: 200.3726°
argument of perigee: 199.0435°
revolutions per day: 14.32409773
mean anomaly at epoch: 160.9503°
orbit number at epoch: 95804

The dashed part of the orbit path shows where the satellite is in the earth's shadow,  

DLR